Andalusia, AL

4:35 AM CST on December 16, 2017 (GMT -0600)
Andalusia

Weather History for K79J - January, 2012

Change the Weather History Date:

Wednesday, January 25, 2012

  Actual Average (KCEW) Record (KCEW)
Temperature  
Mean Temperature 68 °F -  
Max Temperature 80 °F 61 °F 79 °F (2012)
Min Temperature 57 °F 35 °F 19 °F (2003)
Cooling Degree Days 4    
Growing Degree Days 18 (Base 50)    
Moisture  
Dew Point 56 °F    
Average Humidity 70    
Maximum Humidity 84    
Minimum Humidity 45    
Precipitation  
Precipitation 0.00 in - - ()
Sea Level Pressure  
Sea Level Pressure 30.10 in    
Wind  
Wind Speed 5 mph (SSE)    
Max Wind Speed 9 mph    
Max Gust Speed 20 mph    
Visibility 10 miles    
Events      
Averages and records for this station are not official NWS values.
T = Trace of Precipitation, MM = Missing Value Source: NWS Daily Summary

Daily Weather History Graph

Daily Weather History Graph

Search for Another Location

Airport or City:

Trip Planner

Search our weather history database for the weather conditions in past years. The results will help you decide how hot, cold, wet, or windy it might be!

Date:

Astronomy

Jan. 25, 2012 Rise Set
Actual Time 6:41 AM CST 5:13 PM CST
Civil Twilight 6:16 AM CST 5:39 PM CST
Nautical Twilight 5:46 AM CST 6:09 PM CST
Astronomical Twilight 5:17 AM CST 6:37 PM CST
Moon 7:53 AM CST (1/25) 7:51 PM CST (1/25)
Length of Visible Light 11h 23m
Length of Day
10h 31m
Waxing Crescent, 7% of the Moon is Illuminated
Jan 25
Waxing Crescent
Jan 30
First Quarter
Feb 7
Full
Feb 14
Last Quarter
Feb 21
New

Hourly Weather History & Observations

Time (CST) Temp. Heat Index Dew Point Humidity Pressure Visibility Wind Dir Wind Speed Gust Speed Precip Events Conditions
12:56 AM 59.0 °F - 48.9 °F 69% 30.14 in 10.0 mi Calm Calm - N/A   Clear
1:56 AM 57.9 °F - 48.0 °F 70% 30.13 in 10.0 mi SE 3.5 mph - N/A   Clear
2:56 AM 57.9 °F - 48.0 °F 70% 30.13 in 10.0 mi SE 4.6 mph - N/A   Partly Cloudy
3:32 AM 59.0 °F - 48.2 °F 67% 30.13 in 10.0 mi ESE 4.6 mph - N/A   Mostly Cloudy
3:56 AM 60.1 °F - 48.0 °F 64% 30.13 in 10.0 mi ESE 5.8 mph - N/A   Overcast
4:56 AM 61.0 °F - 48.9 °F 64% 30.13 in 10.0 mi ESE 5.8 mph - N/A   Overcast
5:32 AM 59.0 °F - 48.2 °F 67% 30.15 in 10.0 mi ESE 4.6 mph - N/A   Overcast
5:56 AM 57.9 °F - 48.9 °F 72% 30.14 in 10.0 mi SE 3.5 mph - N/A   Mostly Cloudy
6:33 AM 59.0 °F - 50.0 °F 72% 30.15 in 10.0 mi ESE 4.6 mph - N/A   Overcast
6:49 AM 59.0 °F - 51.8 °F 77% 30.15 in 10.0 mi SE 5.8 mph - N/A   Overcast
6:56 AM 60.1 °F - 51.1 °F 72% 30.14 in 10.0 mi SE 4.6 mph - N/A   Overcast
7:56 AM 62.1 °F - 57.0 °F 84% 30.14 in 8.0 mi SE 8.1 mph - N/A   Overcast
8:36 AM 62.6 °F - 57.2 °F 82% 30.16 in 4.0 mi SE 5.8 mph - N/A   Haze
8:56 AM 64.0 °F - 59.0 °F 84% 30.15 in 5.0 mi SE 6.9 mph - N/A   Haze
9:23 AM 64.4 °F - 59.0 °F 83% 30.16 in 9.0 mi SE 6.9 mph - N/A   Overcast
9:44 AM 66.2 °F - 59.0 °F 78% 30.16 in 10.0 mi Variable 6.9 mph - N/A   Mostly Cloudy
9:56 AM 68.0 °F - 59.0 °F 73% 30.14 in 10.0 mi SE 9.2 mph - N/A   Mostly Cloudy
10:03 AM 69.8 °F - 59.0 °F 68% 30.15 in 10.0 mi SE 8.1 mph - N/A   Scattered Clouds
10:56 AM 72.0 °F - 60.1 °F 66% 30.13 in 10.0 mi SE 5.8 mph - N/A   Clear
11:56 AM 77.0 °F - 60.1 °F 56% 30.09 in 10.0 mi Variable 6.9 mph 18.4 mph N/A   Partly Cloudy
12:56 PM 77.0 °F - 60.1 °F 56% 30.07 in 10.0 mi South 8.1 mph 19.6 mph N/A   Scattered Clouds
1:56 PM 78.1 °F - 60.1 °F 54% 30.04 in 10.0 mi Variable 6.9 mph - N/A   Scattered Clouds
2:56 PM 80.1 °F 80.4 °F 57.0 °F 45% 30.03 in 10.0 mi Variable 4.6 mph - N/A   Partly Cloudy
3:56 PM 77.0 °F - 57.9 °F 52% 30.03 in 10.0 mi SW 8.1 mph - N/A   Clear
4:56 PM 75.0 °F - 59.0 °F 57% 30.02 in 10.0 mi SSW 5.8 mph - N/A   Clear
5:56 PM 72.0 °F - 60.1 °F 66% 30.04 in 10.0 mi SSW 3.5 mph - N/A   Partly Cloudy
6:56 PM 68.0 °F - 60.1 °F 76% 30.04 in 10.0 mi South 3.5 mph - N/A   Partly Cloudy
7:56 PM 69.1 °F - 60.1 °F 73% 30.04 in 10.0 mi South 6.9 mph - N/A   Overcast
8:56 PM 68.0 °F - 59.0 °F 73% 30.06 in 10.0 mi South 3.5 mph - N/A   Mostly Cloudy
9:56 PM 66.9 °F - 59.0 °F 76% 30.05 in 10.0 mi Calm Calm - N/A   Mostly Cloudy
10:07 PM 66.2 °F - 59.0 °F 78% 30.06 in 10.0 mi SSE 4.6 mph - N/A   Overcast
10:56 PM 68.0 °F - 59.0 °F 73% 30.04 in 10.0 mi SSE 5.8 mph - N/A   Overcast
11:22 PM 68.0 °F - 60.8 °F 78% 30.04 in 10.0 mi SSE 4.6 mph - N/A   Overcast
11:56 PM 66.9 °F - 61.0 °F 81% 30.02 in 10.0 mi SSE 6.9 mph - N/A   Overcast